{"data":{"norad_id":39234,"intl_designator":"2013-044B","name":"GSAT-7","alt_names":[],"object_type":"PAYLOAD","status":"ACTIVE","operator":null,"country":"IND","launch_date":"2013-08-29","launch_site_code":"FRGUI","launch_vehicle":null,"mission":null,"orbit_class":"UNKNOWN","rcs_meters":14.285,"size_class":null,"mass_kg":null,"dimensions":null,"purposes":["comms"],"wikipedia_slug":null,"has_3d_model":false,"image_url":null,"decayed_at":null,"tle_current":{"epoch":"2026-09-20T01:52:37.579872Z","epoch_age_seconds":58409,"freshness":"FRESH","line1":"1 39234U 13044B   26263.07821273 -.00000082  00000+0  00000+0 0  9991","line2":"2 39234   0.3181  86.7347 0005202 165.0868 209.3346  1.00272498 46217","mean_motion":1.00272498,"eccentricity":0.0005202,"inclination_deg":0.3181,"raan_deg":86.7347,"arg_perigee_deg":165.0868,"mean_anomaly_deg":209.3346,"bstar":0,"rev_number":4621,"period_min":1436.0866924847,"perigee_km":35764.461093003,"apogee_km":35808.329072182,"semimajor_km":42164.532082592,"source":"CELESTRAK","updated_at":"2026-09-20T09:00:35.206031Z"}}}